TimeAKDT,TemperatureF,Dew PointF,Humidity,Sea Level PressureIn,VisibilityMPH,Wind Direction,Wind SpeedMPH,Gust SpeedMPH,PrecipitationIn,Events,Conditions,WindDirDegrees,DateUTC
12:53 AM,37.0,30.0,76,30.20,10.0,SSW,17.3,27.6,0.00,,Overcast,200,2013-03-30 08:53:00
1:53 AM,37.0,30.0,76,30.19,10.0,SSW,19.6,31.1,N/A,,Overcast,200,2013-03-30 09:53:00
2:53 AM,37.0,30.0,76,30.18,10.0,SSW,19.6,28.8,N/A,,Overcast,200,2013-03-30 10:53:00
3:53 AM,37.0,30.0,76,30.17,10.0,SSW,19.6,28.8,N/A,,Overcast,210,2013-03-30 11:53:00
4:53 AM,37.0,30.0,76,30.17,10.0,SSW,17.3,28.8,N/A,,Overcast,200,2013-03-30 12:53:00
5:53 AM,37.9,30.9,76,30.18,10.0,SSW,17.3,25.3,N/A,,Overcast,200,2013-03-30 13:53:00
6:53 AM,37.9,30.9,76,30.19,10.0,SSW,18.4,24.2,N/A,,Overcast,200,2013-03-30 14:53:00
7:53 AM,37.0,30.9,79,30.20,10.0,SSW,20.7,28.8,N/A,,Overcast,210,2013-03-30 15:53:00
8:53 AM,37.9,30.9,76,30.22,10.0,SSW,19.6,26.5,N/A,,Overcast,200,2013-03-30 16:53:00
9:53 AM,37.0,32.0,82,30.23,9.0,SSW,24.2,31.1,0.00,,Overcast,210,2013-03-30 17:53:00
10:53 AM,37.9,33.1,83,30.26,10.0,SSW,16.1,23.0,N/A,,Overcast,200,2013-03-30 18:53:00
11:53 AM,39.0,33.1,79,30.29,10.0,SSW,15.0,20.7,0.00,,Overcast,210,2013-03-30 19:53:00
12:53 PM,39.0,33.1,79,30.30,10.0,SSW,13.8,-,0.00,,Overcast,200,2013-03-30 20:53:00
1:53 PM,39.0,34.0,82,30.31,7.0,SSW,20.7,-,0.00,Rain,Light Rain,200,2013-03-30 21:53:00
2:53 PM,39.0,34.0,82,30.31,7.0,SSW,16.1,-,0.00,Rain,Light Rain,200,2013-03-30 22:53:00
3:53 PM,39.0,34.0,82,30.32,7.0,SSW,15.0,23.0,0.01,Rain,Light Rain,210,2013-03-30 23:53:00
4:53 PM,39.0,34.0,82,30.32,9.0,SSW,11.5,-,0.00,,Overcast,200,2013-03-31 00:53:00
5:53 PM,39.0,35.1,86,30.32,10.0,SSW,12.7,-,N/A,,Overcast,200,2013-03-31 01:53:00
6:37 PM,39.2,35.6,87,30.32,10.0,SSW,6.9,-,N/A,,Overcast,200,2013-03-31 02:37:00
6:53 PM,39.0,35.1,86,30.32,10.0,South,9.2,-,N/A,,Overcast,190,2013-03-31 02:53:00
7:53 PM,39.0,35.1,86,30.33,10.0,South,11.5,18.4,N/A,,Overcast,190,2013-03-31 03:53:00
8:53 PM,39.0,35.1,86,30.32,10.0,South,5.8,-,N/A,,Overcast,190,2013-03-31 04:53:00
9:53 PM,39.0,35.1,86,30.34,10.0,SSW,10.4,16.1,N/A,,Overcast,200,2013-03-31 05:53:00
10:19 PM,39.2,35.6,87,30.34,10.0,SSW,10.4,-,N/A,,Overcast,200,2013-03-31 06:19:00
10:53 PM,39.0,36.0,89,30.34,9.0,South,10.4,-,N/A,,Overcast,190,2013-03-31 06:53:00
11:38 PM,39.2,35.6,87,30.34,9.0,SSW,10.4,17.3,N/A,,Overcast,200,2013-03-31 07:38:00
11:53 PM,39.0,35.1,86,30.34,8.0,SSW,8.1,-,N/A,,Overcast,210,2013-03-31 07:53:00